SCP
0 0 0 0 0 0 0 0 0 0 0 0 0 0 0 0 0 0 0 0 0 0 0 0 0 0 0 0 0 -0 -0 -0 -0 -0 -0 -0 -0 -0 0 0 0 0 0 0
0 0 0 0 0 0 0 0 0 0 0 0 0 0 0 0 0 0 0 0 0 0 0 0 0 0 0 0 0 -0 -0 0 0 0 0 0 0 0 0 0 0 0 0 0
0 0 0 0 0 0 0 0 0 0 0 0 0 0 0 0 0 0 0 0 0 0 0 0 0 0 0 0 0 0 0 0 0 0 0 0 0 0 0 0 0 0 0 0
0 0 0 0 0 0 0 0 0 0 0 0 0 0 0 0 0 0 0 0 0 0 0 0 0 0 0 0 0 0 0 0 0 0 0 0 0 0 0 0 0 0 0 0
0 0 0 0 0 0 0 0 0 0 0 0 0 0 0 0 0 0 0 0 0 0 0 0 0 0 0 0 0 0 0 0 0 0 0 0 0 0 0 0 0 0 0 0
0 0 0 0 0 0 0 0 0 0 0 0 0 0 0 0 0 0 0 0 0 0 0 0 0 0 0 0 0 0 0 0 0 0 0 0 0 0 0 0 0 0 0 0
0 0 0 0 0 0 0 0 0 0 0 0 0 0 0 0 0 0 0 0 0 0 0 0 0 0 0 0 0 0 0 0 0 0 0 0 0 0 0 0 0 0 0 0
0 0 0 0 0 0 0 0 0 0 0 0 0 0 0 0 0 0 0 0 0 0 0 0 0 0 0 0 0 0 0 0 0 0 0 0 0 0 0 0 0 0 0 0
0 0 0 0 0 0 0 0 0 0 0 0 0 0 0 0 0 0 0 0 0 0 0 0 0 0 0 0 0 0 0 0 0 0 0 0 0 0 0 0 0 0 0 0
0 0 0 0 0 0 0 0 0 0 0 0 0 0 0 0 0 0 0 0 0 0 0 0 0 0 0 0 0 0 0 0 0 0 0 0 0 0 0 0 0 0 0 0
0 0 0 0 0 0 0 0 0 0 0 0 0 0 0 0 0 0 0 0 0 0 0 0 0 0 0 0 0 0 0 0 0 0 0 0 0 0 0 0 0 0 0 0
0 0 0 0 0 0 0 0 0 0 0 0 0 0 0 0 0 0 0 0 0 0 0 0 0 0 0 0 0 0 0 0 0 0 0 0 0 0 0 0 0 0 0 0
0 0 0 0 0 0 0 0 0 0 0 0 0 0 0 0 0 0 0 0 0 0 0 0 0 0 0 0 0 0 0 0 0 0 0 0 0 0 0 0 0 0 0 0
0 0 0 0 0 0 0 0 0 0 0 0 0 0 0 0 0 0 0 0 0 0 0 0 0 0 0 0 0 0 0 0 0 0 0 0 0 0 0 0 0 0 0 0
0 0 0 0 0 0 0 0 0 0 0 0 0 0 0 0 0 0 0 0 0 0 0 0 0 0 0 0 0 0 0 0 0 0 0 0 0 0 0 0 0 0 0 0
0 0 0 0 0 0 0 0 0 0 0 0 0 0 0 0 0 0 0 0 0 0 0 0 0 0 0 0 0 0 0 0 0 0 0 0 0 0 0 0 0 0 0 0
0 0 0 0 0 0 0 0 0 0 0 0 0 0 0 0 0 0 0 0 0 0 0 0 0 0 0 0 0 0 0 0 0 0 0 0 0 0 0 0 0 0 0 0
0 0 0 0 0 0 0 0 0 0 0 0 0 0 0 0 0 0 0 0 0 0 0 0 0 0 0 0 0 0 0 0 0 0 0 0 0 0 0 0 0 0 0 0
0 0 0 0 0 0 0 0 0 0 0 0 0 0 0 0 0 0 0 0 0 0 0 0 0 0 0 0 0 0 0 0 0 0 0 0 0 0 0 0 0 0 0 0
0 0 0 0 0 0 0 0 0 0 0 0 0 0 0 0 0 0 0 0 0 0 0 0 0 0 0 0 0 0 0 0 0 0 0 0 0 0 0 0 0 0 0 0
0 0 0 0 0 0 0 0 0 0 0 0 0 0 0 0 0 0 0 0 0 0 0 0 0 0 0 0 0 0 0 0 0 0 0 0 0 0 0 0 0 0 0 0
0 0 0 0 0 0 0 0 0 0 0 0 0 0 0 0 0 0 0 0 0 0 0 0 0 0 0 0 0 0 0 0 0 0 0 0 0 0 0 0 0 0 0 0
0 0 0 0 0 0 0 0 0 0 0 0 0 0 0 0 0 0 0 0 0 0 0 0 0 0 0 0 0 0 0 0 0 0 0 0 0 0 0 0 0 0 0 0
0 0 0 0 0 0 0 0 0 0 0 0 0 0 0 0 0 0 0 0 0 0 0 0 0 0 0 0 0 0 0 0 0 0 0 0 0 0 0 0 0 0 0 0
0 0 0 0 0 0 0 0 0 0 0 0 0 0 0 0 0 0 0 0 0 0 0 0 0 0 0 0 0 0 0 0 0 0 0 0 0 0 0 0 0 0 0 0
0 0 0 0 0 0 0 0 0 0 0 0 0 0 0 0 0 0 0 0 0 0 0 0 0 0 0 0 0 0 0 0 0 0 0 0 0 0 0 0 0 0 0 0
0 0 0 0 0 0 0 0 0 0 0 0 0 0 0 0 0 0 0 0 0 0 0 0 0 0 0 0 0 0 0 0 0 0 0 0 0 0 0 0 0 0 0 0
Wind_Speed
11 12 11 12 14 13 12 13 16 18 19 17 8 2 1 2 2 2 2 3 3 2 1 2 3 3 3 4 4 3 3 4 5 5 5 6 6 6 6 7 8 8 8 9
7 9 10 15 18 17 16 16 18 19 19 4 3 4 4 3 1 1 2 3 2 2 3 5 5 5 5 5 5 4 4 6 6 7 7 7 7 7 7 8 8 8 9 9
6 5 6 13 15 15 13 13 14 15 6 4 3 3 3 2 3 4 3 3 3 3 4 4 4 4 5 5 4 4 5 7 8 8 9 9 8 8 9 9 9 11 11 11
4 2 11 13 5 6 7 7 4 1 4 4 2 1 2 5 6 4 3 3 4 4 4 4 3 3 3 3 3 5 7 8 8 9 10 10 9 10 10 9 11 12 13 13
4 7 10 8 5 2 4 6 2 3 5 3 0 3 5 4 0 1 3 4 4 4 4 3 2 2 3 3 4 6 7 8 8 8 9 10 11 12 11 10 12 13 15 15
6 6 9 6 2 2 2 6 4 6 5 3 2 3 5 3 3 4 5 5 4 3 2 2 4 4 5 5 6 7 7 8 8 8 9 11 13 14 12 12 15 17 18 16
9 8 10 4 4 3 3 8 5 6 6 6 6 7 7 6 6 6 6 3 1 2 3 3 5 6 6 7 7 7 9 10 11 10 11 13 14 14 14 16 18 18 20 20
7 8 10 4 6 6 6 4 6 7 8 7 8 8 7 6 6 5 1 3 4 4 4 4 5 6 8 9 8 9 10 11 11 11 11 11 13 14 14 15 18 18 19 20
9 9 5 9 8 8 5 5 7 8 8 8 8 8 7 6 4 0 3 3 3 3 5 4 4 4 8 9 10 10 10 11 12 12 10 10 12 14 13 13 14 15 15 17
6 7 9 8 8 8 9 10 10 9 8 7 8 8 7 5 2 1 2 2 3 4 5 5 4 4 5 9 9 9 11 12 13 12 12 11 10 11 12 12 13 15 15 16
12 12 11 13 13 12 11 10 9 8 8 8 8 8 6 3 2 2 2 2 2 3 6 7 6 6 6 7 8 10 12 13 13 12 13 12 12 11 14 14 17 19 16 16
12 11 10 11 11 10 10 10 9 8 8 7 6 6 4 3 2 2 1 2 3 4 6 7 7 8 7 7 7 10 13 13 12 12 12 13 13 14 21 25 31 35 34 32
15 14 13 13 12 12 10 9 8 7 6 5 3 3 3 2 2 2 1 3 4 5 6 7 9 10 8 7 7 9 12 14 12 12 13 13 14 14 15 19 26 31 33 35
15 14 14 13 13 9 6 3 3 3 3 4 4 4 3 2 0 2 3 3 4 5 7 8 9 10 8 7 8 10 12 13 13 12 12 13 13 14 15 16 16 16 21 29
15 12 11 7 4 2 4 4 4 4 5 5 5 4 2 2 2 3 4 4 5 7 7 8 9 9 7 7 9 11 12 10 10 11 12 12 13 14 14 15 15 15 14 17
9 3 2 3 4 4 4 4 4 4 5 5 4 2 1 1 3 4 5 5 5 7 8 8 10 9 7 8 10 10 9 14 13 11 11 12 12 13 13 14 14 14 13 13
5 6 6 5 5 5 5 4 3 3 3 3 2 1 1 3 4 6 6 6 6 8 8 9 10 8 7 8 9 9 9 10 12 11 10 11 11 12 13 13 12 13 12 16
3 4 4 3 3 5 6 5 4 3 2 1 1 2 3 4 6 6 6 6 7 8 8 7 6 7 7 8 8 7 8 8 8 9 9 10 11 11 11 12 12 13 12 14
6 7 7 7 6 5 4 3 2 1 0 1 2 4 5 5 6 6 6 6 7 8 6 4 10 8 8 9 9 5 6 8 8 8 8 11 11 10 10 11 11 11 12 11
7 7 6 6 5 3 2 1 1 1 2 2 3 5 6 7 7 7 6 7 7 7 5 6 7 6 7 7 9 5 6 6 7 8 8 8 9 10 10 11 11 11 11 10
6 5 5 4 3 2 1 0 1 3 4 4 5 6 7 7 6 6 5 7 6 4 4 6 5 5 5 6 6 5 5 5 6 6 7 7 8 9 9 10 10 10 10 10
5 4 3 2 1 1 1 1 3 4 5 5 6 6 6 7 7 7 8 7 5 4 4 4 4 6 7 6 4 4 5 5 5 5 5 6 7 8 9 10 9 10 10 10
4 3 2 1 0 2 3 3 4 5 6 6 7 7 7 7 5 5 5 3 2 4 4 3 6 8 8 4 4 4 5 5 5 5 5 6 6 7 7 9 8 9 9 9
3 2 1 1 0 1 3 4 4 4 6 7 7 8 7 6 5 5 4 3 3 5 3 5 8 8 7 4 4 4 4 4 5 5 5 5 5 5 6 7 7 8 8 9
3 2 1 1 1 2 3 4 4 5 5 4 5 5 4 4 4 3 2 3 4 4 3 5 8 7 4 4 4 4 4 4 4 5 5 5 5 5 5 6 6 7 7 7
3 2 1 2 2 2 2 2 3 3 3 3 4 3 2 2 3 3 2 3 3 4 3 3 4 5 4 4 4 4 4 5 5 4 5 5 5 5 5 6 8 6 6 6
2 1 1 1 0 1 1 2 3 3 3 3 4 3 3 3 3 3 3 3 3 3 3 3 4 4 4 4 4 4 4 4 4 4 4 4 4 5 5 7 6 6 6 6
Wind_Direction
264 278 290 289 283 277 267 264 267 274 276 283 298 284 187 155 165 191 214 226 234 224 239 265 274 283 293 300 303 301 303 302 297 298 296 292 287 285 287 290 290 289 291 291
272 269 278 276 270 268 269 268 268 272 274 313 73 71 66 62 40 296 280 272 262 253 254 249 246 249 258 268 274 285 295 293 294 294 290 284 280 280 284 285 284 284 281 279
255 259 279 259 246 248 247 247 260 272 275 90 86 72 50 3 300 284 295 299 285 270 266 264 253 248 252 256 265 273 277 281 285 285 285 283 281 282 283 285 285 284 280 275
259 264 235 240 240 234 260 270 284 275 159 147 124 47 309 271 260 263 282 295 290 279 277 272 272 278 284 284 275 268 268 269 269 270 273 276 276 276 279 282 283 284 285 281
218 234 260 264 262 298 275 274 248 167 155 145 29 314 280 271 88 292 279 270 266 262 268 289 332 0 350 314 293 281 276 275 277 281 285 286 284 284 285 284 283 281 281 278
218 228 239 239 138 88 29 275 211 157 164 193 266 277 268 306 310 285 270 261 262 276 322 26 31 19 346 317 307 297 300 309 316 317 311 304 300 298 297 291 287 286 283 280
227 239 252 239 145 122 201 252 185 166 191 218 232 237 257 274 269 260 256 261 345 34 43 40 29 9 331 315 309 318 329 325 322 321 317 309 304 301 299 295 291 286 284 281
200 218 249 167 146 192 220 168 186 204 222 238 252 265 272 272 268 265 276 61 51 26 4 12 19 356 319 311 321 330 326 318 313 308 303 300 295 294 292 290 288 285 283 281
197 208 221 175 192 215 222 222 228 236 248 253 263 270 272 272 271 184 88 71 50 18 335 341 357 344 314 317 325 322 315 308 303 299 294 291 289 291 290 286 284 285 285 285
247 247 251 249 242 238 238 242 247 248 251 252 258 265 267 263 232 139 95 73 38 354 321 315 328 327 311 315 318 312 306 305 303 301 297 291 286 287 287 285 284 283 284 284
238 242 250 253 253 254 256 256 254 250 246 245 250 254 250 228 176 135 86 51 13 329 307 306 317 314 310 310 310 306 304 304 304 300 296 294 289 282 284 275 274 281 277 274
243 236 236 244 243 235 234 239 241 245 250 241 225 228 203 176 139 107 53 358 319 302 298 303 309 305 306 304 300 302 306 306 304 302 299 296 295 292 288 289 290 290 288 287
251 252 250 252 253 248 243 243 238 229 228 219 171 147 143 137 109 71 328 296 293 298 301 302 302 300 300 295 294 295 298 300 300 298 297 296 295 296 296 295 293 293 292 292
244 246 248 249 251 251 238 202 134 121 110 113 113 104 104 106 48 271 276 292 305 302 294 291 291 291 293 294 297 298 296 295 293 292 292 293 294 295 295 297 298 295 293 293
248 242 244 250 232 152 126 125 139 162 148 130 117 125 142 203 251 272 294 306 302 291 286 286 290 295 297 301 303 300 297 293 292 292 294 295 296 296 296 296 296 298 297 298
246 224 202 208 198 164 149 161 181 182 157 147 144 154 165 272 284 286 287 288 286 286 290 292 292 295 304 308 305 301 295 295 299 298 300 301 302 303 304 305 305 307 311 312
203 218 206 209 202 178 163 152 144 129 122 138 153 144 228 270 277 278 278 275 268 271 277 280 286 295 302 303 303 301 298 299 302 305 306 307 309 310 311 312 314 316 317 319
116 104 114 131 144 143 131 121 116 119 141 152 167 231 247 256 266 274 281 289 289 285 277 268 279 298 306 302 295 296 301 305 307 308 310 313 315 315 317 319 322 323 324 328
90 91 84 78 71 86 98 104 107 113 158 235 249 253 257 260 264 272 282 288 287 288 281 288 314 321 302 295 311 307 303 306 311 312 314 317 320 322 324 326 328 330 331 334
94 91 91 87 76 82 92 81 67 267 262 259 257 262 266 266 267 270 271 268 258 254 276 301 303 295 294 305 322 303 303 310 315 318 322 325 325 326 328 331 332 334 337 340
115 107 102 97 88 75 71 298 265 265 269 261 253 257 263 270 271 269 267 273 268 254 281 294 292 294 299 313 311 305 309 313 317 321 325 326 327 329 332 335 338 341 344 347
122 115 109 102 85 327 312 287 262 265 272 270 264 261 264 270 268 260 245 246 255 278 292 286 291 296 313 322 313 312 316 321 324 325 327 328 331 334 336 339 342 346 348 350
120 122 119 124 214 303 311 291 262 254 257 259 259 257 253 255 258 265 275 255 255 288 296 289 299 311 335 331 317 318 323 330 331 330 328 327 330 332 335 338 342 345 349 352
125 124 122 114 72 304 296 287 275 259 255 255 252 249 246 257 263 251 248 269 286 301 302 298 308 330 344 325 318 321 324 326 326 323 323 323 325 328 333 337 340 342 346 349
130 136 161 188 243 258 273 296 301 295 286 277 276 265 243 240 257 276 283 280 293 307 307 315 324 331 328 311 315 317 317 316 317 319 322 324 325 326 328 331 334 336 339 342
147 164 181 215 231 257 289 302 302 303 313 314 310 307 313 305 298 296 294 295 305 310 308 310 313 312 307 308 310 310 309 313 318 322 321 319 321 325 326 329 329 329 327 327
162 170 180 282 267 293 304 302 300 306 312 310 309 316 324 318 316 321 319 315 319 315 310 307 303 298 296 296 297 297 298 299 301 306 309 310 312 314 317 318 314 313 315 318